Home   Weather   Ufa   Past weeks

Flag for Russia Past Weather in Ufa, Russia — Yesterday and Last 2 Weeks

Now
48 °F

Clear.


Feels Like: 47 °F
Forecast: 47 / 60 °F
Wind: 3 mph from East

Location: Ufa

Current Time: Sep 26, 2016 at 12:19:38 AM

Latest Report: Sep 25, 2016 at 11:30 PM


Visibility: 10 mi

Pressure: 30.12 "Hg

Humidity: 76%

Dew Point: 41 °F

Location of UfaLocation

Past Weather in Ufa — Graph

°F

Ufa Temperature Yesterday

Maximum temperature yesterday: 70 °F (at 3:00 PM)
Minimum temperature yesterday: 46 °F (at 5:00 AM)
Average temperature yesterday: 57 °F

High & Low Weather Summary for the Past Weeks

 TemperatureHumidityPressure
High79 °F (Sep 22, 2:30 PM)100% (Sep 11, 8:30 AM)30.21 "Hg (Sep 11, 8:30 AM)
Low43 °F (Sep 14, 6:30 AM)31% (Sep 24, 3:00 PM)29.45 "Hg (Sep 14, 12:00 AM)
Average53 °F80%29.84 "Hg
* Reported Sep 10 11:00 PM — Sep 25 11:00 PM, Ufa, Weather by CustomWeather, © 2016

Note: Actual official high and low records may vary slightly from our data, if they occured in-between our weather recording intervals... More about our weather records

Advertising

Ufa Weather History for the Previous 24 Hours

Scroll right to see more
 ConditionsComfort  
Time TempWeatherWind HumidityBarometerVisibility
11:00 PM
Sun, Sep 25
50 °FClear.3 mph71%30.12 "Hg10 mi
10:30 PM50 °FClear.6 mph71%30.12 "Hg10 mi
10:00 PM52 °FClear.6 mph72%30.12 "Hg10 mi
9:30 PM52 °FClear.8 mph67%30.12 "Hg10 mi
9:00 PM52 °FClear.6 mph67%30.12 "Hg10 mi
8:30 PM54 °FClear.6 mph63%30.12 "Hg10 mi
8:00 PM57 °FSunny.6 mph59%30.12 "Hg10 mi
7:30 PM59 °FSunny.3 mph51%30.12 "Hg10 mi
7:00 PM61 °FSunny.6 mph52%30.12 "Hg10 mi
6:30 PM63 °FSunny.3 mph49%30.12 "Hg10 mi
6:00 PM68 °FSunny.10 mph38%30.12 "Hg10 mi
5:30 PM70 °FSunny.10 mph35%30.12 "Hg10 mi
5:00 PM70 °FSunny.13 mph35%30.12 "Hg10 mi
4:30 PM70 °FSunny.10 mph35%30.12 "Hg10 mi
4:00 PM70 °FSunny.13 mph35%30.12 "Hg10 mi
3:30 PM70 °FSunny.10 mph38%30.12 "Hg10 mi
3:00 PM70 °FSunny.15 mph38%30.12 "Hg10 mi
2:30 PM68 °FPassing clouds.8 mph43%30.15 "HgN/A
2:00 PM68 °FPassing clouds.10 mph43%30.15 "HgN/A
1:30 PM66 °FPassing clouds.10 mph46%30.15 "HgN/A
1:00 PM66 °FPassing clouds.13 mph43%30.18 "HgN/A
12:30 PM64 °FSunny.13 mph46%30.18 "Hg10 mi
12:00 PM64 °FSunny.10 mph43%30.18 "Hg10 mi
11:30 AM63 °FSunny.10 mph52%30.18 "Hg10 mi
11:00 AM63 °FSunny.10 mph49%30.18 "Hg10 mi
10:30 AM61 °FSunny.13 mph52%30.21 "Hg10 mi
10:00 AM59 °FPassing clouds.6 mph59%30.21 "HgN/A
9:30 AM55 °FSunny.6 mph67%30.21 "Hg10 mi
9:00 AM54 °FSunny.8 mph67%30.21 "Hg10 mi
8:30 AM52 °FSunny.6 mph72%30.21 "Hg10 mi
8:00 AM52 °FClear.8 mph67%30.21 "Hg10 mi
7:30 AM48 °FClear.6 mph76%30.21 "Hg10 mi
7:00 AM46 °FClear.6 mph82%30.21 "Hg10 mi
6:30 AM48 °FClear.8 mph76%30.21 "Hg10 mi
6:00 AM46 °FClear.6 mph76%30.21 "Hg10 mi
5:30 AM50 °FClear.6 mph71%30.21 "Hg10 mi
5:00 AM46 °FClear.6 mph76%30.21 "Hg10 mi
4:30 AM50 °FClear.3 mph71%30.21 "Hg10 mi
4:00 AM48 °FClear.3 mph76%30.21 "Hg10 mi
3:30 AM50 °FClear.3 mph71%30.18 "Hg10 mi
3:00 AM50 °FPassing clouds.3 mph71%30.21 "HgN/A
2:30 AM50 °FClear.6 mph71%30.18 "Hg10 mi
2:00 AM48 °FClear.6 mph76%30.18 "Hg10 mi
1:30 AM48 °FClear.6 mph76%30.18 "Hg10 mi
1:00 AM50 °FClear.3 mph71%30.18 "Hg10 mi
12:30 AM52 °FClear.3 mph67%30.18 "Hg10 mi
12:00 AM50 °FClear.3 mph71%30.18 "Hg10 mi
Weather by CustomWeather, © 2016

See weather overviewHow to use our weather pages